Time,TemperatureF,DewpointF,PressureIn,WindDirection,WindDirectionDegrees,WindSpeedMPH,WindSpeedGustMPH,Humidity,HourlyPrecipIn,Conditions,Clouds,dailyrainin,SoftwareType,DateUTC
2013-11-22 00:01:00,62.3,59.6,30.23,SE,140,2.0,4.0,91,0.00,,,0.00,WeatherCatV1.02B3,2013-11-22 06:01:00,
2013-11-22 00:06:00,62.3,59.6,30.22,SE,141,0.0,1.0,91,0.00,,,0.00,WeatherCatV1.02B3,2013-11-22 06:06:00,
2013-11-22 00:11:00,62.3,59.6,30.22,SE,142,2.0,2.0,91,0.00,,,0.00,WeatherCatV1.02B3,2013-11-22 06:11:00,
2013-11-22 00:16:00,62.3,59.6,30.23,SE,142,0.0,0.0,91,0.00,,,0.00,WeatherCatV1.02B3,2013-11-22 06:16:00,
2013-11-22 00:21:00,62.3,59.6,30.22,SE,142,0.0,0.0,91,0.00,,,0.00,WeatherCatV1.02B3,2013-11-22 06:21:00,
2013-11-22 00:26:00,62.3,59.6,30.22,SE,142,0.0,0.0,91,0.00,,,0.00,WeatherCatV1.02B3,2013-11-22 06:26:00,
2013-11-22 00:31:00,62.3,59.6,30.22,SE,141,0.0,5.0,91,0.00,,,0.00,WeatherCatV1.02B3,2013-11-22 06:31:00,
2013-11-22 00:36:00,62.3,59.6,30.22,SE,142,4.0,6.0,91,0.00,,,0.00,WeatherCatV1.02B3,2013-11-22 06:36:00,
2013-11-22 00:41:00,62.4,59.7,30.23,SE,142,0.0,0.0,91,0.00,,,0.00,WeatherCatV1.02B3,2013-11-22 06:41:00,
2013-11-22 00:46:00,62.4,59.7,30.23,SE,142,0.0,2.0,91,0.00,,,0.00,WeatherCatV1.02B3,2013-11-22 06:46:00,
2013-11-22 00:51:00,62.4,59.7,30.23,SE,142,2.0,4.0,91,0.00,,,0.00,WeatherCatV1.02B3,2013-11-22 06:51:00,
2013-11-22 00:56:00,62.5,59.8,30.23,SE,142,0.0,1.0,91,0.00,,,0.00,WeatherCatV1.02B3,2013-11-22 06:56:00,
2013-11-22 01:01:00,62.5,59.8,30.23,SE,142,0.0,0.0,91,0.00,,,0.00,WeatherCatV1.02B3,2013-11-22 07:01:00,
2013-11-22 01:06:00,62.5,59.8,30.23,SE,142,0.0,2.0,91,0.00,,,0.00,WeatherCatV1.02B3,2013-11-22 07:06:00,
2013-11-22 01:11:00,62.6,59.9,30.23,SE,142,0.0,1.0,91,0.00,,,0.00,WeatherCatV1.02B3,2013-11-22 07:11:00,
2013-11-22 01:16:00,62.6,59.9,30.23,SE,142,0.0,0.0,91,0.00,,,0.00,WeatherCatV1.02B3,2013-11-22 07:16:00,
2013-11-22 01:21:00,62.6,59.9,30.22,SE,142,0.0,4.0,91,0.00,,,0.00,WeatherCatV1.02B3,2013-11-22 07:21:00,
2013-11-22 01:26:00,62.7,60.0,30.23,SE,142,0.0,0.0,91,0.00,,,0.00,WeatherCatV1.02B3,2013-11-22 07:26:00,
2013-11-22 01:31:00,62.6,59.9,30.23,SE,142,0.0,4.0,91,0.00,,,0.00,WeatherCatV1.02B3,2013-11-22 07:31:00,
2013-11-22 01:36:00,62.6,59.9,30.23,SE,142,0.0,0.0,91,0.00,,,0.00,WeatherCatV1.02B3,2013-11-22 07:36:00,
2013-11-22 01:41:00,62.6,59.9,30.22,SE,142,0.0,2.0,91,0.00,,,0.00,WeatherCatV1.02B3,2013-11-22 07:41:00,
2013-11-22 01:46:00,62.6,59.9,30.22,SE,142,0.0,0.0,91,0.00,,,0.00,WeatherCatV1.02B3,2013-11-22 07:46:00,
2013-11-22 01:51:00,62.6,59.9,30.22,SE,142,0.0,0.0,91,0.00,,,0.00,WeatherCatV1.02B3,2013-11-22 07:51:00,
2013-11-22 01:56:00,62.5,60.1,30.22,SE,142,0.0,0.0,92,0.00,,,0.00,WeatherCatV1.02B3,2013-11-22 07:56:00,
2013-11-22 02:01:00,62.5,60.1,30.22,SE,142,0.0,0.0,92,0.00,,,0.00,WeatherCatV1.02B3,2013-11-22 08:01:00,
2013-11-22 02:06:00,62.4,60.0,30.22,SE,142,0.0,0.0,92,0.00,,,0.00,WeatherCatV1.02B3,2013-11-22 08:06:00,
2013-11-22 02:11:00,62.4,60.0,30.22,SE,142,0.0,0.0,92,0.00,,,0.00,WeatherCatV1.02B3,2013-11-22 08:11:00,
2013-11-22 02:16:00,62.4,60.0,30.22,SE,142,0.0,1.0,92,0.00,,,0.00,WeatherCatV1.02B3,2013-11-22 08:16:00,
2013-11-22 02:21:00,62.4,60.0,30.22,SE,142,4.0,4.0,92,0.00,,,0.00,WeatherCatV1.02B3,2013-11-22 08:21:00,
2013-11-22 02:26:00,62.3,59.9,30.22,SE,142,0.0,0.0,92,0.00,,,0.00,WeatherCatV1.02B3,2013-11-22 08:26:00,
2013-11-22 02:31:00,62.4,60.0,30.22,SE,142,0.0,0.0,92,0.00,,,0.00,WeatherCatV1.02B3,2013-11-22 08:31:00,
2013-11-22 02:36:00,62.4,60.0,30.22,SE,142,0.0,0.0,92,0.00,,,0.00,WeatherCatV1.02B3,2013-11-22 08:36:00,
2013-11-22 02:41:00,62.4,60.0,30.22,SE,142,0.0,0.0,92,0.00,,,0.00,WeatherCatV1.02B3,2013-11-22 08:41:00,
2013-11-22 02:46:00,62.4,60.0,30.21,SE,142,0.0,0.0,92,0.00,,,0.00,WeatherCatV1.02B3,2013-11-22 08:46:00,
2013-11-22 02:51:00,62.4,60.3,30.22,SE,142,0.0,0.0,93,0.00,,,0.00,WeatherCatV1.02B3,2013-11-22 08:51:00,
2013-11-22 02:56:00,62.4,60.3,30.21,SE,142,0.0,4.0,93,0.00,,,0.00,WeatherCatV1.02B3,2013-11-22 08:56:00,
2013-11-22 03:01:00,62.4,60.3,30.22,SE,142,0.0,2.0,93,0.00,,,0.00,WeatherCatV1.02B3,2013-11-22 09:01:00,
2013-11-22 03:06:00,62.5,60.4,30.21,SE,142,0.0,1.0,93,0.00,,,0.00,WeatherCatV1.02B3,2013-11-22 09:06:00,
2013-11-22 03:11:00,62.4,60.3,30.21,SE,142,0.0,0.0,93,0.00,,,0.00,WeatherCatV1.02B3,2013-11-22 09:11:00,
2013-11-22 03:16:00,62.4,60.3,30.21,SE,142,0.0,0.0,93,0.00,,,0.00,WeatherCatV1.02B3,2013-11-22 09:16:00,
2013-11-22 03:21:00,62.4,60.3,30.21,SE,142,0.0,0.0,93,0.00,,,0.00,WeatherCatV1.02B3,2013-11-22 09:21:00,
2013-11-22 03:26:00,62.3,59.9,30.21,SE,142,0.0,0.0,92,0.00,,,0.00,WeatherCatV1.02B3,2013-11-22 09:26:00,
2013-11-22 03:31:00,62.3,60.2,30.21,SE,142,0.0,0.0,93,0.00,,,0.00,WeatherCatV1.02B3,2013-11-22 09:31:00,
2013-11-22 03:36:00,62.3,60.2,30.21,SE,142,1.0,1.0,93,0.00,,,0.00,WeatherCatV1.02B3,2013-11-22 09:36:00,
2013-11-22 03:41:00,62.3,60.2,30.21,SE,142,0.0,0.0,93,0.00,,,0.00,WeatherCatV1.02B3,2013-11-22 09:41:00,
2013-11-22 03:46:00,62.3,60.2,30.21,SE,142,0.0,1.0,93,0.00,,,0.00,WeatherCatV1.02B3,2013-11-22 09:46:00,
2013-11-22 03:51:00,62.2,60.1,30.21,SE,142,1.0,2.0,93,0.00,,,0.00,WeatherCatV1.02B3,2013-11-22 09:51:00,
2013-11-22 03:56:00,62.2,60.1,30.21,SE,142,0.0,1.0,93,0.00,,,0.00,WeatherCatV1.02B3,2013-11-22 09:56:00,
2013-11-22 04:01:00,62.2,60.1,30.21,SE,142,0.0,0.0,93,0.00,,,0.00,WeatherCatV1.02B3,2013-11-22 10:01:00,
2013-11-22 04:06:00,62.2,60.1,30.21,SE,142,0.0,0.0,93,0.00,,,0.00,WeatherCatV1.02B3,2013-11-22 10:06:00,
2013-11-22 04:11:00,62.2,60.1,30.21,SE,142,0.0,0.0,93,0.00,,,0.00,WeatherCatV1.02B3,2013-11-22 10:11:00,
2013-11-22 04:16:00,62.2,60.1,30.21,SE,142,2.0,4.0,93,0.00,,,0.00,WeatherCatV1.02B3,2013-11-22 10:16:00,
2013-11-22 04:21:00,62.1,60.0,30.20,SE,142,0.0,1.0,93,0.00,,,0.00,WeatherCatV1.02B3,2013-11-22 10:21:00,
2013-11-22 04:26:00,62.1,60.0,30.20,SE,142,0.0,5.0,93,0.00,,,0.00,WeatherCatV1.02B3,2013-11-22 10:26:00,
2013-11-22 04:31:00,62.0,59.9,30.21,SE,142,0.0,0.0,93,0.00,,,0.00,WeatherCatV1.02B3,2013-11-22 10:31:00,
2013-11-22 04:36:00,61.9,59.8,30.21,SE,142,0.0,0.0,93,0.00,,,0.00,WeatherCatV1.02B3,2013-11-22 10:36:00,
2013-11-22 04:41:00,61.9,59.8,30.21,SE,142,2.0,5.0,93,0.00,,,0.00,WeatherCatV1.02B3,2013-11-22 10:41:00,
2013-11-22 04:46:00,61.9,59.8,30.20,SE,142,0.0,4.0,93,0.00,,,0.00,WeatherCatV1.02B3,2013-11-22 10:46:00,
2013-11-22 04:51:00,61.8,59.8,30.20,SE,142,4.0,4.0,93,0.00,,,0.00,WeatherCatV1.02B3,2013-11-22 10:51:00,
2013-11-22 04:56:00,61.8,59.8,30.19,SE,142,1.0,4.0,93,0.00,,,0.00,WeatherCatV1.02B3,2013-11-22 10:56:00,
2013-11-22 05:01:00,61.8,59.8,30.19,SE,142,1.0,4.0,93,0.00,,,0.00,WeatherCatV1.02B3,2013-11-22 11:01:00,
2013-11-22 05:06:00,61.8,59.8,30.19,SE,137,0.0,7.0,93,0.00,,,0.00,WeatherCatV1.02B3,2013-11-22 11:06:00,
2013-11-22 05:11:00,61.9,60.2,30.19,SE,134,0.0,2.0,94,0.00,,,0.00,WeatherCatV1.02B3,2013-11-22 11:11:00,
2013-11-22 05:16:00,61.9,60.2,30.19,SE,130,0.0,5.0,94,0.00,,,0.00,WeatherCatV1.02B3,2013-11-22 11:16:00,
2013-11-22 05:21:00,62.0,60.2,30.19,SE,138,1.0,5.0,94,0.00,,,0.00,WeatherCatV1.02B3,2013-11-22 11:21:00,
2013-11-22 05:26:00,62.0,60.2,30.18,SE,138,1.0,2.0,94,0.00,,,0.00,WeatherCatV1.02B3,2013-11-22 11:26:00,
2013-11-22 05:31:00,62.0,60.2,30.17,SE,127,1.0,4.0,94,0.00,,,0.00,WeatherCatV1.02B3,2013-11-22 11:31:00,
2013-11-22 05:36:00,62.0,60.2,30.17,SE,133,0.0,2.0,94,0.00,,,0.00,WeatherCatV1.02B3,2013-11-22 11:36:00,
2013-11-22 05:41:00,62.1,60.3,30.19,SSE,161,0.0,4.0,94,0.00,,,0.00,WeatherCatV1.02B3,2013-11-22 11:41:00,
2013-11-22 05:46:00,62.1,60.3,30.19,SSE,162,0.0,1.0,94,0.00,,,0.00,WeatherCatV1.02B3,2013-11-22 11:46:00,
2013-11-22 05:51:00,62.2,60.4,30.20,SSE,162,0.0,1.0,94,0.00,,,0.00,WeatherCatV1.02B3,2013-11-22 11:51:00,
2013-11-22 05:56:00,62.2,60.4,30.20,SSE,162,0.0,0.0,94,0.00,,,0.00,WeatherCatV1.02B3,2013-11-22 11:56:00,
2013-11-22 06:01:00,62.3,60.5,30.21,SSE,162,0.0,0.0,94,0.00,,,0.00,WeatherCatV1.02B3,2013-11-22 12:01:00,
2013-11-22 06:06:00,62.3,60.5,30.21,SSE,162,0.0,0.0,94,0.00,,,0.00,WeatherCatV1.02B3,2013-11-22 12:06:00,
2013-11-22 06:11:00,62.3,60.5,30.21,SSE,165,0.0,5.0,94,0.00,,,0.00,WeatherCatV1.02B3,2013-11-22 12:11:00,
2013-11-22 06:16:00,62.4,60.6,30.22,SSE,160,0.0,5.0,94,0.00,,,0.00,WeatherCatV1.02B3,2013-11-22 12:16:00,
2013-11-22 06:21:00,62.5,60.7,30.22,SSE,160,1.0,1.0,94,0.00,,,0.00,WeatherCatV1.02B3,2013-11-22 12:21:00,
2013-11-22 06:26:00,62.5,60.7,30.22,SSE,160,0.0,0.0,94,0.00,,,0.00,WeatherCatV1.02B3,2013-11-22 12:26:00,
2013-11-22 06:31:00,62.6,60.8,30.22,SSE,162,0.0,0.0,94,0.00,,,0.00,WeatherCatV1.02B3,2013-11-22 12:31:00,
2013-11-22 06:36:00,62.6,60.8,30.22,SSE,162,4.0,4.0,94,0.00,,,0.00,WeatherCatV1.02B3,2013-11-22 12:36:00,
2013-11-22 06:41:00,62.6,61.4,30.22,SSE,157,1.0,5.0,96,0.00,,,0.00,WeatherCatV1.02B3,2013-11-22 12:41:00,
2013-11-22 06:46:00,62.6,60.8,30.23,SSE,155,0.0,0.0,94,0.00,,,0.00,WeatherCatV1.02B3,2013-11-22 12:46:00,
2013-11-22 06:51:00,62.6,60.8,30.24,SSE,158,0.0,0.0,94,0.00,,,0.00,WeatherCatV1.02B3,2013-11-22 12:51:00,
2013-11-22 06:56:00,62.7,60.9,30.24,SSE,158,0.0,0.0,94,0.00,,,0.00,WeatherCatV1.02B3,2013-11-22 12:56:00,
2013-11-22 07:01:00,62.7,60.9,30.24,SSE,158,0.0,0.0,94,0.00,,,0.00,WeatherCatV1.02B3,2013-11-22 13:01:00,
2013-11-22 07:06:00,62.7,60.9,30.24,SSE,158,0.0,0.0,94,0.00,,,0.00,WeatherCatV1.02B3,2013-11-22 13:06:00,
2013-11-22 07:11:00,62.8,61.0,30.25,SSE,158,0.0,0.0,94,0.00,,,0.00,WeatherCatV1.02B3,2013-11-22 13:11:00,
2013-11-22 07:16:00,62.8,61.0,30.25,SSE,158,0.0,0.0,94,0.00,,,0.00,WeatherCatV1.02B3,2013-11-22 13:16:00,
2013-11-22 07:21:00,62.9,61.1,30.27,SSE,158,0.0,0.0,94,0.00,,,0.00,WeatherCatV1.02B3,2013-11-22 13:21:00,
2013-11-22 07:26:00,62.9,61.1,30.28,NW,304,2.0,9.0,94,0.00,,,0.00,WeatherCatV1.02B3,2013-11-22 13:26:00,
2013-11-22 07:31:00,62.7,60.9,30.28,WNW,303,2.0,5.0,94,0.00,,,0.00,WeatherCatV1.02B3,2013-11-22 13:31:00,
2013-11-22 07:36:00,62.7,60.9,30.28,NNW,338,0.0,1.0,94,0.00,,,0.00,WeatherCatV1.02B3,2013-11-22 13:36:00,
2013-11-22 07:41:00,62.7,60.9,30.28,NNW,340,0.0,0.0,94,0.00,,,0.00,WeatherCatV1.02B3,2013-11-22 13:41:00,
2013-11-22 07:46:00,62.7,60.9,30.28,NNW,340,0.0,0.0,94,0.00,,,0.01,WeatherCatV1.02B3,2013-11-22 13:46:00,
2013-11-22 07:51:00,62.8,61.3,30.29,WSW,257,0.0,3.0,95,0.19,,,0.03,WeatherCatV1.02B3,2013-11-22 13:51:00,
2013-11-22 07:56:00,62.9,61.4,30.28,WSW,257,0.0,0.0,95,1.36,,,0.12,WeatherCatV1.02B3,2013-11-22 13:56:00,
2013-11-22 08:01:00,62.9,61.4,30.28,WSW,257,0.0,0.0,95,0.69,,,0.19,WeatherCatV1.02B3,2013-11-22 14:01:00,
2013-11-22 08:06:00,62.9,61.4,30.28,WSW,257,0.0,0.0,95,1.09,,,0.29,WeatherCatV1.02B3,2013-11-22 14:06:00,
2013-11-22 08:11:00,63.0,61.5,30.29,WSW,257,0.0,0.0,95,0.85,,,0.32,WeatherCatV1.02B3,2013-11-22 14:11:00,
2013-11-22 08:16:00,63.0,61.5,30.28,WSW,257,0.0,0.0,95,0.46,,,0.37,WeatherCatV1.02B3,2013-11-22 14:16:00,
2013-11-22 08:21:00,63.0,61.5,30.28,WSW,257,0.0,0.0,95,0.31,,,0.39,WeatherCatV1.02B3,2013-11-22 14:21:00,
2013-11-22 08:26:00,63.1,61.6,30.28,WSW,257,0.0,0.0,95,0.33,,,0.41,WeatherCatV1.02B3,2013-11-22 14:26:00,
2013-11-22 08:31:00,63.1,61.6,30.28,WSW,257,0.0,0.0,95,0.09,,,0.41,WeatherCatV1.02B3,2013-11-22 14:31:00,
2013-11-22 08:36:00,63.1,61.6,30.28,WSW,257,0.0,2.0,95,0.08,,,0.42,WeatherCatV1.02B3,2013-11-22 14:36:00,
2013-11-22 08:41:00,63.2,61.7,30.27,SSW,209,0.0,2.0,95,0.07,,,0.42,WeatherCatV1.02B3,2013-11-22 14:41:00,
2013-11-22 08:46:00,63.2,61.7,30.27,SSW,209,0.0,1.0,95,0.06,,,0.43,WeatherCatV1.02B3,2013-11-22 14:46:00,
2013-11-22 08:51:00,63.2,61.7,30.27,SSW,209,0.0,0.0,95,0.06,,,0.43,WeatherCatV1.02B3,2013-11-22 14:51:00,
2013-11-22 08:56:00,63.2,61.7,30.27,SSW,209,0.0,0.0,95,0.04,,,0.43,WeatherCatV1.02B3,2013-11-22 14:56:00,
2013-11-22 09:01:00,63.3,61.8,30.27,SSW,209,0.0,1.0,95,0.00,,,0.43,WeatherCatV1.02B3,2013-11-22 15:01:00,
2013-11-22 09:06:00,63.4,61.9,30.27,SSW,207,0.0,1.0,95,0.00,,,0.44,WeatherCatV1.02B3,2013-11-22 15:06:00,
2013-11-22 09:11:00,63.4,61.9,30.28,SSW,207,0.0,0.0,95,0.00,,,0.44,WeatherCatV1.02B3,2013-11-22 15:11:00,
2013-11-22 09:16:00,63.5,62.0,30.28,SSW,207,0.0,0.0,95,0.07,,,0.45,WeatherCatV1.02B3,2013-11-22 15:16:00,
2013-11-22 09:21:00,63.5,62.0,30.28,SSW,207,0.0,0.0,95,0.07,,,0.45,WeatherCatV1.02B3,2013-11-22 15:21:00,
2013-11-22 09:26:00,63.6,62.4,30.28,SSW,207,0.0,0.0,96,0.05,,,0.45,WeatherCatV1.02B3,2013-11-22 15:26:00,
2013-11-22 09:31:00,63.6,62.4,30.28,SSW,207,0.0,0.0,96,0.05,,,0.46,WeatherCatV1.02B3,2013-11-22 15:31:00,
2013-11-22 09:36:00,63.6,62.4,30.29,SSW,207,0.0,0.0,96,0.10,,,0.47,WeatherCatV1.02B3,2013-11-22 15:36:00,
2013-11-22 09:41:00,63.6,62.1,30.28,SSW,207,0.0,0.0,95,0.08,,,0.47,WeatherCatV1.02B3,2013-11-22 15:41:00,
2013-11-22 09:46:00,63.5,62.0,30.28,SSW,207,0.0,0.0,95,0.08,,,0.48,WeatherCatV1.02B3,2013-11-22 15:46:00,
2013-11-22 09:51:00,63.5,62.3,30.28,SSW,207,0.0,0.0,96,0.11,,,0.49,WeatherCatV1.02B3,2013-11-22 15:51:00,
2013-11-22 09:56:00,63.6,62.4,30.28,SSW,207,0.0,0.0,96,0.08,,,0.50,WeatherCatV1.02B3,2013-11-22 15:56:00,
2013-11-22 10:01:00,63.5,62.3,30.28,SSW,207,0.0,0.0,96,0.15,,,0.51,WeatherCatV1.02B3,2013-11-22 16:01:00,
2013-11-22 10:06:00,63.5,62.3,30.27,SSW,207,1.0,2.0,96,0.19,,,0.53,WeatherCatV1.02B3,2013-11-22 16:06:00,
2013-11-22 10:11:00,63.5,62.3,30.28,SSW,207,0.0,2.0,96,0.13,,,0.54,WeatherCatV1.02B3,2013-11-22 16:11:00,
2013-11-22 10:16:00,63.6,62.4,30.28,SSW,207,0.0,0.0,96,0.14,,,0.55,WeatherCatV1.02B3,2013-11-22 16:16:00,
2013-11-22 10:21:00,63.6,62.4,30.27,SSW,207,0.0,0.0,96,0.09,,,0.55,WeatherCatV1.02B3,2013-11-22 16:21:00,
2013-11-22 10:26:00,63.6,62.4,30.27,SSW,207,0.0,0.0,96,0.16,,,0.57,WeatherCatV1.02B3,2013-11-22 16:26:00,
2013-11-22 10:31:00,63.6,62.4,30.27,SSW,207,0.0,0.0,96,0.13,,,0.58,WeatherCatV1.02B3,2013-11-22 16:31:00,
2013-11-22 10:36:00,63.6,62.4,30.27,SSW,207,0.0,0.0,96,0.14,,,0.59,WeatherCatV1.02B3,2013-11-22 16:36:00,
2013-11-22 10:41:00,63.7,62.5,30.28,SSW,207,0.0,0.0,96,0.12,,,0.60,WeatherCatV1.02B3,2013-11-22 16:41:00,
2013-11-22 10:46:00,63.8,62.6,30.27,SSW,207,0.0,0.0,96,0.06,,,0.60,WeatherCatV1.02B3,2013-11-22 16:46:00,
2013-11-22 10:51:00,63.8,62.6,30.27,SSW,207,0.0,0.0,96,0.04,,,0.61,WeatherCatV1.02B3,2013-11-22 16:51:00,
2013-11-22 10:56:00,63.8,62.6,30.26,SSW,207,0.0,0.0,96,0.04,,,0.61,WeatherCatV1.02B3,2013-11-22 16:56:00,
2013-11-22 11:01:00,63.9,62.7,30.26,SSW,207,0.0,1.0,96,0.04,,,0.61,WeatherCatV1.02B3,2013-11-22 17:01:00,
2013-11-22 11:06:00,64.1,62.9,30.25,SSW,207,0.0,0.0,96,0.04,,,0.61,WeatherCatV1.02B3,2013-11-22 17:06:00,
2013-11-22 11:11:00,64.2,63.0,30.24,SSW,207,0.0,1.0,96,0.00,,,0.61,WeatherCatV1.02B3,2013-11-22 17:11:00,
2013-11-22 11:16:00,64.2,63.0,30.25,SSW,207,0.0,0.0,96,0.00,,,0.61,WeatherCatV1.02B3,2013-11-22 17:16:00,
2013-11-22 11:21:00,64.2,63.0,30.25,SSW,207,0.0,0.0,96,0.00,,,0.61,WeatherCatV1.02B3,2013-11-22 17:21:00,
2013-11-22 11:26:00,64.3,63.1,30.25,SSW,207,0.0,0.0,96,0.00,,,0.61,WeatherCatV1.02B3,2013-11-22 17:26:00,
2013-11-22 11:31:00,64.3,63.1,30.25,SSW,207,0.0,0.0,96,0.00,,,0.61,WeatherCatV1.02B3,2013-11-22 17:31:00,
2013-11-22 11:36:00,64.5,63.3,30.24,SSW,207,0.0,0.0,96,0.00,,,0.61,WeatherCatV1.02B3,2013-11-22 17:36:00,
2013-11-22 11:41:00,64.6,63.4,30.24,SSW,207,0.0,0.0,96,0.00,,,0.61,WeatherCatV1.02B3,2013-11-22 17:41:00,
2013-11-22 11:46:00,64.7,63.5,30.24,SSW,207,0.0,0.0,96,0.00,,,0.62,WeatherCatV1.02B3,2013-11-22 17:46:00,
2013-11-22 11:51:00,64.7,63.5,30.23,SSW,207,0.0,0.0,96,0.00,,,0.62,WeatherCatV1.02B3,2013-11-22 17:51:00,
2013-11-22 11:56:00,64.7,63.5,30.24,SSW,207,0.0,0.0,96,0.00,,,0.62,WeatherCatV1.02B3,2013-11-22 17:56:00,
2013-11-22 12:01:00,64.7,63.5,30.25,SSW,207,0.0,0.0,96,0.00,,,0.62,WeatherCatV1.02B3,2013-11-22 18:01:00,
2013-11-22 12:06:00,64.6,63.4,30.25,SSW,207,0.0,0.0,96,0.00,,,0.62,WeatherCatV1.02B3,2013-11-22 18:06:00,
2013-11-22 12:11:00,64.6,63.4,30.25,SSW,207,0.0,1.0,96,0.00,,,0.62,WeatherCatV1.02B3,2013-11-22 18:11:00,
2013-11-22 12:16:00,64.7,63.5,30.25,SSW,207,0.0,0.0,96,0.00,,,0.63,WeatherCatV1.02B3,2013-11-22 18:16:00,
2013-11-22 12:21:00,64.8,63.6,30.25,SSW,207,0.0,0.0,96,0.00,,,0.63,WeatherCatV1.02B3,2013-11-22 18:21:00,
2013-11-22 12:26:00,64.7,63.5,30.25,SSW,207,0.0,0.0,96,0.00,,,0.63,WeatherCatV1.02B3,2013-11-22 18:26:00,
2013-11-22 12:31:00,64.8,63.6,30.25,SSW,207,0.0,0.0,96,0.00,,,0.63,WeatherCatV1.02B3,2013-11-22 18:31:00,
2013-11-22 12:36:00,64.8,63.6,30.25,SSW,207,0.0,0.0,96,0.00,,,0.63,WeatherCatV1.02B3,2013-11-22 18:36:00,
2013-11-22 12:41:00,64.8,63.6,30.25,SSW,207,0.0,0.0,96,0.00,,,0.63,WeatherCatV1.02B3,2013-11-22 18:41:00,
2013-11-22 12:46:00,64.8,63.6,30.25,SSW,207,0.0,0.0,96,0.00,,,0.64,WeatherCatV1.02B3,2013-11-22 18:46:00,
2013-11-22 12:51:00,64.8,63.6,30.25,SSW,207,0.0,0.0,96,0.00,,,0.64,WeatherCatV1.02B3,2013-11-22 18:51:00,
2013-11-22 12:56:00,64.9,63.7,30.25,SSW,207,0.0,1.0,96,0.00,,,0.64,WeatherCatV1.02B3,2013-11-22 18:56:00,
2013-11-22 13:01:00,64.8,63.6,30.25,SSW,207,0.0,0.0,96,0.00,,,0.64,WeatherCatV1.02B3,2013-11-22 19:01:00,
2013-11-22 13:06:00,64.9,63.7,30.25,SSW,207,0.0,0.0,96,0.00,,,0.64,WeatherCatV1.02B3,2013-11-22 19:06:00,
2013-11-22 13:11:00,65.0,63.8,30.24,SSW,207,0.0,0.0,96,0.00,,,0.64,WeatherCatV1.02B3,2013-11-22 19:11:00,
2013-11-22 13:16:00,65.2,64.0,30.24,SSW,207,0.0,0.0,96,0.00,,,0.64,WeatherCatV1.02B3,2013-11-22 19:16:00,
2013-11-22 13:21:00,65.4,64.2,30.24,SSW,207,0.0,0.0,96,0.00,,,0.64,WeatherCatV1.02B3,2013-11-22 19:21:00,
2013-11-22 13:26:00,65.5,64.3,30.23,SSW,207,0.0,0.0,96,0.00,,,0.64,WeatherCatV1.02B3,2013-11-22 19:26:00,
2013-11-22 13:32:00,65.3,64.1,30.23,SSW,207,0.0,0.0,96,0.00,,,0.64,WeatherCatV1.02B3,2013-11-22 19:32:00,
2013-11-22 13:37:00,65.4,64.2,30.23,SSW,207,0.0,0.0,96,0.00,,,0.64,WeatherCatV1.02B3,2013-11-22 19:37:00,
2013-11-22 13:42:00,65.4,64.2,30.23,SSW,207,0.0,0.0,96,0.00,,,0.64,WeatherCatV1.02B3,2013-11-22 19:42:00,
2013-11-22 13:47:00,65.3,64.1,30.23,SSW,207,0.0,0.0,96,0.00,,,0.64,WeatherCatV1.02B3,2013-11-22 19:47:00,
2013-11-22 13:52:00,65.3,64.1,30.23,SSW,207,0.0,0.0,96,0.00,,,0.64,WeatherCatV1.02B3,2013-11-22 19:52:00,
2013-11-22 13:57:00,65.3,64.1,30.23,SSW,207,0.0,0.0,96,0.00,,,0.64,WeatherCatV1.02B3,2013-11-22 19:57:00,
2013-11-22 14:02:00,65.3,64.1,30.23,SSW,207,0.0,0.0,96,0.00,,,0.64,WeatherCatV1.02B3,2013-11-22 20:02:00,
2013-11-22 14:07:00,65.3,64.1,30.23,SSW,207,1.0,3.0,96,0.00,,,0.64,WeatherCatV1.02B3,2013-11-22 20:07:00,
2013-11-22 14:12:00,65.1,63.9,30.22,SSW,207,0.0,0.0,96,0.00,,,0.64,WeatherCatV1.02B3,2013-11-22 20:12:00,
2013-11-22 14:17:00,65.2,64.0,30.22,SSW,207,0.0,0.0,96,0.00,,,0.64,WeatherCatV1.02B3,2013-11-22 20:17:00,
2013-11-22 14:22:00,65.4,64.2,30.23,SSW,207,0.0,0.0,96,0.00,,,0.64,WeatherCatV1.02B3,2013-11-22 20:22:00,
2013-11-22 14:27:00,65.4,64.2,30.22,NNW,337,0.0,4.0,96,0.00,,,0.64,WeatherCatV1.02B3,2013-11-22 20:27:00,
2013-11-22 14:32:00,65.2,64.0,30.22,NNW,337,0.0,0.0,96,0.00,,,0.64,WeatherCatV1.02B3,2013-11-22 20:32:00,
2013-11-22 14:37:00,65.1,63.9,30.22,NNW,337,0.0,3.0,96,0.00,,,0.64,WeatherCatV1.02B3,2013-11-22 20:37:00,
2013-11-22 14:42:00,65.0,63.8,30.22,NW,323,0.0,4.0,96,0.00,,,0.64,WeatherCatV1.02B3,2013-11-22 20:42:00,
2013-11-22 14:47:00,65.1,63.9,30.21,NW,323,0.0,0.0,96,0.00,,,0.64,WeatherCatV1.02B3,2013-11-22 20:47:00,
2013-11-22 14:52:00,65.1,63.9,30.21,NW,323,0.0,0.0,96,0.00,,,0.64,WeatherCatV1.02B3,2013-11-22 20:52:00,
2013-11-22 14:57:00,65.2,64.0,30.21,NW,323,0.0,0.0,96,0.00,,,0.64,WeatherCatV1.02B3,2013-11-22 20:57:00,
2013-11-22 15:02:00,65.2,64.0,30.21,NW,323,0.0,2.0,96,0.00,,,0.64,WeatherCatV1.02B3,2013-11-22 21:02:00,
2013-11-22 15:07:00,65.1,63.9,30.21,NW,323,0.0,0.0,96,0.00,,,0.64,WeatherCatV1.02B3,2013-11-22 21:07:00,
2013-11-22 15:12:00,65.2,64.0,30.20,NW,325,0.0,3.0,96,0.00,,,0.64,WeatherCatV1.02B3,2013-11-22 21:12:00,
2013-11-22 15:17:00,65.1,63.9,30.20,NW,325,0.0,0.0,96,0.00,,,0.64,WeatherCatV1.02B3,2013-11-22 21:17:00,
2013-11-22 15:22:00,65.0,63.8,30.20,NW,325,0.0,0.0,96,0.00,,,0.64,WeatherCatV1.02B3,2013-11-22 21:22:00,
2013-11-22 15:27:00,65.0,63.8,30.21,NW,325,0.0,0.0,96,0.00,,,0.64,WeatherCatV1.02B3,2013-11-22 21:27:00,
2013-11-22 15:32:00,65.0,63.8,30.21,NW,325,0.0,0.0,96,0.00,,,0.64,WeatherCatV1.02B3,2013-11-22 21:32:00,
2013-11-22 15:37:00,65.0,63.8,30.21,NW,325,0.0,0.0,96,0.00,,,0.64,WeatherCatV1.02B3,2013-11-22 21:37:00,
2013-11-22 15:42:00,65.0,63.8,30.21,NW,325,0.0,0.0,96,0.00,,,0.64,WeatherCatV1.02B3,2013-11-22 21:42:00,
2013-11-22 15:47:00,64.9,63.7,30.21,NW,325,0.0,0.0,96,0.00,,,0.64,WeatherCatV1.02B3,2013-11-22 21:47:00,
2013-11-22 15:52:00,64.9,63.7,30.21,NW,325,0.0,0.0,96,0.00,,,0.64,WeatherCatV1.02B3,2013-11-22 21:52:00,
2013-11-22 15:57:00,64.9,63.7,30.21,NW,325,0.0,0.0,96,0.00,,,0.64,WeatherCatV1.02B3,2013-11-22 21:57:00,
2013-11-22 16:02:00,64.9,63.7,30.21,NW,325,0.0,0.0,96,0.00,,,0.64,WeatherCatV1.02B3,2013-11-22 22:02:00,
2013-11-22 16:07:00,65.0,63.8,30.21,NW,325,0.0,0.0,96,0.00,,,0.64,WeatherCatV1.02B3,2013-11-22 22:07:00,
2013-11-22 16:12:00,65.0,63.8,30.20,NW,325,0.0,0.0,96,0.00,,,0.64,WeatherCatV1.02B3,2013-11-22 22:12:00,
2013-11-22 16:17:00,65.0,63.8,30.20,NW,325,0.0,0.0,96,0.00,,,0.64,WeatherCatV1.02B3,2013-11-22 22:17:00,
2013-11-22 16:22:00,64.9,63.7,30.21,NW,325,0.0,0.0,96,0.00,,,0.64,WeatherCatV1.02B3,2013-11-22 22:22:00,
2013-11-22 16:27:00,64.9,63.7,30.21,NW,325,0.0,0.0,96,0.00,,,0.64,WeatherCatV1.02B3,2013-11-22 22:27:00,
2013-11-22 16:32:00,64.9,63.7,30.21,NW,325,0.0,0.0,96,0.00,,,0.64,WeatherCatV1.02B3,2013-11-22 22:32:00,
2013-11-22 16:37:00,64.8,63.6,30.21,NW,325,0.0,0.0,96,0.00,,,0.64,WeatherCatV1.02B3,2013-11-22 22:37:00,
2013-11-22 16:42:00,64.8,63.6,30.21,NW,325,0.0,0.0,96,0.00,,,0.64,WeatherCatV1.02B3,2013-11-22 22:42:00,
2013-11-22 16:47:00,64.7,63.5,30.21,NW,325,0.0,0.0,96,0.00,,,0.64,WeatherCatV1.02B3,2013-11-22 22:47:00,
2013-11-22 16:52:00,64.6,63.4,30.21,NW,325,0.0,0.0,96,0.00,,,0.64,WeatherCatV1.02B3,2013-11-22 22:52:00,
2013-11-22 16:57:00,64.6,63.4,30.21,NW,307,1.0,1.0,96,0.00,,,0.64,WeatherCatV1.02B3,2013-11-22 22:57:00,
2013-11-22 17:02:00,64.3,63.1,30.21,West,271,0.0,2.0,96,0.00,,,0.64,WeatherCatV1.02B3,2013-11-22 23:02:00,
2013-11-22 17:07:00,64.1,62.9,30.21,NW,323,0.0,3.0,96,0.00,,,0.64,WeatherCatV1.02B3,2013-11-22 23:07:00,
2013-11-22 17:12:00,63.9,62.7,30.21,NW,323,0.0,0.0,96,0.00,,,0.65,WeatherCatV1.02B3,2013-11-22 23:12:00,
2013-11-22 17:17:00,63.8,62.6,30.22,NW,323,0.0,1.0,96,0.00,,,0.65,WeatherCatV1.02B3,2013-11-22 23:17:00,
2013-11-22 17:22:00,63.8,62.6,30.22,NW,323,0.0,2.0,96,0.00,,,0.65,WeatherCatV1.02B3,2013-11-22 23:22:00,
2013-11-22 17:27:00,63.7,62.5,30.21,NW,323,0.0,0.0,96,0.00,,,0.65,WeatherCatV1.02B3,2013-11-22 23:27:00,
2013-11-22 17:32:00,63.7,62.5,30.21,North,349,0.0,0.0,96,0.00,,,0.65,WeatherCatV1.02B3,2013-11-22 23:32:00,
2013-11-22 17:37:00,63.6,62.4,30.21,North,351,0.0,4.0,96,0.00,,,0.65,WeatherCatV1.02B3,2013-11-22 23:37:00,
2013-11-22 17:42:00,63.5,62.3,30.22,North,9,3.0,6.0,96,0.00,,,0.65,WeatherCatV1.02B3,2013-11-22 23:42:00,
2013-11-22 17:47:00,63.2,62.0,30.22,North,355,2.0,6.0,96,0.00,,,0.65,WeatherCatV1.02B3,2013-11-22 23:47:00,
2013-11-22 17:52:00,63.0,61.8,30.23,NW,319,0.0,4.0,96,0.00,,,0.65,WeatherCatV1.02B3,2013-11-22 23:52:00,
2013-11-22 17:57:00,62.7,61.5,30.23,NNW,348,0.0,1.0,96,0.00,,,0.65,WeatherCatV1.02B3,2013-11-22 23:57:00,
2013-11-22 18:02:00,62.6,61.4,30.23,NW,316,0.0,2.0,96,0.00,,,0.65,WeatherCatV1.02B3,2013-11-23 00:02:00,
2013-11-22 18:07:00,62.5,61.3,30.23,NW,316,1.0,2.0,96,0.00,,,0.65,WeatherCatV1.02B3,2013-11-23 00:07:00,
2013-11-22 18:12:00,62.4,61.2,30.23,North,0,0.0,1.0,96,0.00,,,0.65,WeatherCatV1.02B3,2013-11-23 00:12:00,
2013-11-22 18:17:00,62.4,61.2,30.23,NW,325,0.0,3.0,96,0.00,,,0.65,WeatherCatV1.02B3,2013-11-23 00:17:00,
2013-11-22 18:22:00,62.3,61.1,30.23,NNW,338,0.0,2.0,96,0.00,,,0.65,WeatherCatV1.02B3,2013-11-23 00:22:00,
2013-11-22 18:27:00,62.2,61.0,30.24,NNW,338,0.0,0.0,96,0.00,,,0.65,WeatherCatV1.02B3,2013-11-23 00:27:00,
2013-11-22 18:32:00,62.2,61.0,30.24,NW,318,3.0,3.0,96,0.00,,,0.66,WeatherCatV1.02B3,2013-11-23 00:32:00,
2013-11-22 18:37:00,62.1,60.9,30.24,NW,321,2.0,3.0,96,0.00,,,0.66,WeatherCatV1.02B3,2013-11-23 00:37:00,
2013-11-22 18:42:00,62.1,60.9,30.24,NNW,342,0.0,0.0,96,0.00,,,0.66,WeatherCatV1.02B3,2013-11-23 00:42:00,
2013-11-22 18:47:00,62.0,60.8,30.25,NNW,340,0.0,0.0,96,0.00,,,0.66,WeatherCatV1.02B3,2013-11-23 00:47:00,
2013-11-22 18:52:00,62.0,60.8,30.25,NNW,340,0.0,1.0,96,0.00,,,0.66,WeatherCatV1.02B3,2013-11-23 00:52:00,
2013-11-22 18:57:00,62.0,60.8,30.25,NNW,340,0.0,2.0,96,0.00,,,0.66,WeatherCatV1.02B3,2013-11-23 00:57:00,
2013-11-22 19:02:00,62.0,60.8,30.25,NNW,340,0.0,1.0,96,0.00,,,0.66,WeatherCatV1.02B3,2013-11-23 01:02:00,
2013-11-22 19:07:00,61.8,60.6,30.26,NW,326,0.0,4.0,96,0.00,,,0.66,WeatherCatV1.02B3,2013-11-23 01:07:00,
2013-11-22 19:12:00,61.3,60.1,30.25,WNW,293,0.0,2.0,96,0.00,,,0.66,WeatherCatV1.02B3,2013-11-23 01:12:00,
2013-11-22 19:17:00,61.0,59.8,30.26,North,9,0.0,0.0,96,0.00,,,0.66,WeatherCatV1.02B3,2013-11-23 01:17:00,
2013-11-22 19:22:00,60.8,59.7,30.26,NW,325,0.0,3.0,96,0.00,,,0.66,WeatherCatV1.02B3,2013-11-23 01:22:00,
2013-11-22 19:27:00,60.5,59.4,30.26,NW,325,0.0,2.0,96,0.00,,,0.66,WeatherCatV1.02B3,2013-11-23 01:27:00,
2013-11-22 19:32:00,60.3,59.2,30.27,NW,320,0.0,1.0,96,0.00,,,0.67,WeatherCatV1.02B3,2013-11-23 01:32:00,
2013-11-22 19:37:00,60.1,59.0,30.27,NNW,329,0.0,2.0,96,0.00,,,0.67,WeatherCatV1.02B3,2013-11-23 01:37:00,
2013-11-22 19:42:00,59.8,58.7,30.27,WSW,242,0.0,2.0,96,0.00,,,0.67,WeatherCatV1.02B3,2013-11-23 01:42:00,
2013-11-22 19:47:00,59.7,58.6,30.27,WNW,294,1.0,4.0,96,0.00,,,0.67,WeatherCatV1.02B3,2013-11-23 01:47:00,
2013-11-22 19:52:00,59.6,58.5,30.27,WSW,250,2.0,4.0,96,0.00,,,0.67,WeatherCatV1.02B3,2013-11-23 01:52:00,
2013-11-22 19:57:00,59.5,58.4,30.27,NNW,340,0.0,3.0,96,0.00,,,0.67,WeatherCatV1.02B3,2013-11-23 01:57:00,
2013-11-22 20:02:00,59.3,58.2,30.27,NW,317,0.0,2.0,96,0.00,,,0.67,WeatherCatV1.02B3,2013-11-23 02:02:00,
2013-11-22 20:07:00,59.2,58.1,30.27,NW,317,0.0,6.0,96,0.00,,,0.67,WeatherCatV1.02B3,2013-11-23 02:07:00,
2013-11-22 20:12:00,59.1,58.0,30.27,NW,322,0.0,0.0,96,0.00,,,0.67,WeatherCatV1.02B3,2013-11-23 02:12:00,
2013-11-22 20:17:00,59.1,58.0,30.27,NW,322,0.0,0.0,96,0.00,,,0.67,WeatherCatV1.02B3,2013-11-23 02:17:00,
2013-11-22 20:22:00,59.0,57.9,30.27,NW,319,0.0,2.0,96,0.00,,,0.67,WeatherCatV1.02B3,2013-11-23 02:22:00,
2013-11-22 20:27:00,59.0,57.9,30.28,WNW,293,0.0,1.0,96,0.00,,,0.67,WeatherCatV1.02B3,2013-11-23 02:27:00,
2013-11-22 20:32:00,59.0,57.9,30.28,NNW,337,0.0,0.0,96,0.00,,,0.67,WeatherCatV1.02B3,2013-11-23 02:32:00,
2013-11-22 20:37:00,58.9,57.8,30.28,NNW,337,0.0,3.0,96,0.00,,,0.67,WeatherCatV1.02B3,2013-11-23 02:37:00,
2013-11-22 20:42:00,58.9,57.8,30.28,NW,320,1.0,4.0,96,0.00,,,0.67,WeatherCatV1.02B3,2013-11-23 02:42:00,
2013-11-22 20:47:00,58.9,57.8,30.28,NNW,340,0.0,3.0,96,0.00,,,0.67,WeatherCatV1.02B3,2013-11-23 02:47:00,
2013-11-22 20:52:00,58.8,57.7,30.28,NW,324,0.0,4.0,96,0.00,,,0.67,WeatherCatV1.02B3,2013-11-23 02:52:00,
2013-11-22 20:57:00,58.7,57.6,30.28,NW,311,0.0,3.0,96,0.00,,,0.67,WeatherCatV1.02B3,2013-11-23 02:57:00,
2013-11-22 21:02:00,58.6,57.5,30.28,NW,306,0.0,1.0,96,0.00,,,0.67,WeatherCatV1.02B3,2013-11-23 03:02:00,
2013-11-22 21:07:00,58.6,57.5,30.28,NW,311,0.0,2.0,96,0.00,,,0.67,WeatherCatV1.02B3,2013-11-23 03:07:00,
2013-11-22 21:12:00,58.5,57.4,30.28,North,355,0.0,4.0,96,0.00,,,0.67,WeatherCatV1.02B3,2013-11-23 03:12:00,
2013-11-22 21:17:00,58.5,57.4,30.28,North,355,1.0,4.0,96,0.00,,,0.67,WeatherCatV1.02B3,2013-11-23 03:17:00,
2013-11-22 21:22:00,58.5,57.4,30.28,North,350,0.0,0.0,96,0.00,,,0.67,WeatherCatV1.02B3,2013-11-23 03:22:00,
2013-11-22 21:27:00,58.4,57.3,30.28,North,351,0.0,1.0,96,0.00,,,0.67,WeatherCatV1.02B3,2013-11-23 03:27:00,
2013-11-22 21:32:00,58.4,57.3,30.28,NNW,340,0.0,0.0,96,0.00,,,0.67,WeatherCatV1.02B3,2013-11-23 03:32:00,
2013-11-22 21:37:00,58.4,57.3,30.28,NW,315,0.0,0.0,96,0.00,,,0.67,WeatherCatV1.02B3,2013-11-23 03:37:00,
2013-11-22 21:42:00,58.3,57.2,30.28,NW,325,3.0,4.0,96,0.00,,,0.67,WeatherCatV1.02B3,2013-11-23 03:42:00,
2013-11-22 21:47:00,58.3,57.2,30.28,North,0,5.0,5.0,96,0.00,,,0.67,WeatherCatV1.02B3,2013-11-23 03:47:00,
2013-11-22 21:52:00,58.2,57.1,30.28,NNW,347,0.0,2.0,96,0.00,,,0.67,WeatherCatV1.02B3,2013-11-23 03:52:00,
2013-11-22 21:57:00,58.2,57.1,30.28,NNW,348,0.0,3.0,96,0.00,,,0.67,WeatherCatV1.02B3,2013-11-23 03:57:00,
2013-11-22 22:02:00,58.2,57.4,30.28,North,0,4.0,7.0,97,0.00,,,0.67,WeatherCatV1.02B3,2013-11-23 04:02:00,
2013-11-22 22:07:00,58.2,57.4,30.28,North,5,0.0,5.0,97,0.00,,,0.67,WeatherCatV1.02B3,2013-11-23 04:07:00,
2013-11-22 22:12:00,58.1,57.3,30.28,North,355,0.0,4.0,97,0.00,,,0.67,WeatherCatV1.02B3,2013-11-23 04:12:00,
2013-11-22 22:17:00,58.0,57.2,30.28,North,355,4.0,5.0,97,0.00,,,0.67,WeatherCatV1.02B3,2013-11-23 04:17:00,
2013-11-22 22:22:00,58.0,56.9,30.28,North,355,0.0,2.0,96,0.00,,,0.67,WeatherCatV1.02B3,2013-11-23 04:22:00,
2013-11-22 22:27:00,58.0,56.9,30.28,NNW,344,0.0,0.0,96,0.00,,,0.67,WeatherCatV1.02B3,2013-11-23 04:27:00,
2013-11-22 22:32:00,58.0,56.9,30.28,NW,319,0.0,1.0,96,0.00,,,0.67,WeatherCatV1.02B3,2013-11-23 04:32:00,
2013-11-22 22:37:00,57.9,56.8,30.28,NNW,328,5.0,5.0,96,0.00,,,0.67,WeatherCatV1.02B3,2013-11-23 04:37:00,
2013-11-22 22:42:00,57.8,56.7,30.28,NNW,329,0.0,3.0,96,0.00,,,0.67,WeatherCatV1.02B3,2013-11-23 04:42:00,
2013-11-22 22:47:00,57.7,56.6,30.28,North,350,3.0,3.0,96,0.00,,,0.67,WeatherCatV1.02B3,2013-11-23 04:47:00,
2013-11-22 22:52:00,57.6,56.5,30.28,North,351,2.0,6.0,96,0.00,,,0.67,WeatherCatV1.02B3,2013-11-23 04:52:00,
2013-11-22 22:57:00,57.6,56.5,30.28,North,0,3.0,5.0,96,0.00,,,0.67,WeatherCatV1.02B3,2013-11-23 04:57:00,
2013-11-22 23:01:00,57.5,56.4,30.28,North,355,0.0,3.0,96,0.00,,,0.67,WeatherCatV1.02B3,2013-11-23 05:01:00,
2013-11-22 23:06:00,57.4,56.3,30.27,NNW,334,3.0,5.0,96,0.00,,,0.67,WeatherCatV1.02B3,2013-11-23 05:06:00,
2013-11-22 23:11:00,57.3,56.2,30.27,NW,322,1.0,5.0,96,0.00,,,0.67,WeatherCatV1.02B3,2013-11-23 05:11:00,
2013-11-22 23:16:00,57.3,56.2,30.27,NNW,343,0.0,0.0,96,0.00,,,0.67,WeatherCatV1.02B3,2013-11-23 05:16:00,
2013-11-22 23:21:00,57.4,56.3,30.27,NNW,343,0.0,2.0,96,0.00,,,0.67,WeatherCatV1.02B3,2013-11-23 05:21:00,
2013-11-22 23:26:00,57.4,56.6,30.27,NNW,342,0.0,5.0,97,0.00,,,0.67,WeatherCatV1.02B3,2013-11-23 05:26:00,
2013-11-22 23:31:00,57.3,56.2,30.27,North,9,0.0,5.0,96,0.00,,,0.67,WeatherCatV1.02B3,2013-11-23 05:31:00,
2013-11-22 23:36:00,57.3,56.2,30.27,NW,321,2.0,3.0,96,0.00,,,0.67,WeatherCatV1.02B3,2013-11-23 05:36:00,
2013-11-22 23:41:00,57.2,56.1,30.27,NNW,342,5.0,5.0,96,0.00,,,0.67,WeatherCatV1.02B3,2013-11-23 05:41:00,
2013-11-22 23:46:00,57.1,56.0,30.27,North,350,1.0,4.0,96,0.00,,,0.67,WeatherCatV1.02B3,2013-11-23 05:46:00,
2013-11-22 23:51:00,57.0,55.9,30.27,NNW,330,1.0,2.0,96,0.00,,,0.67,WeatherCatV1.02B3,2013-11-23 05:51:00,
2013-11-22 23:56:00,56.9,55.8,30.27,NNW,342,0.0,4.0,96,0.00,,,0.67,WeatherCatV1.02B3,2013-11-23 05:56:00,